Location: Dumpton Point
(51.3500°N, 1.4433°E)
Time: 07:45:26
(UTC+00:00)

Cosmos 1459 Rocket - Pass Details

Date: 09 April 2020
Orbit: 936 x 1000 km, 83.0° (Epoch: 24 May)

Event Time Altitude Azimuth Distance (km) Brightness Sun altitude
Rises 23:27:27 0° 348° (NNW) 3,735 8.2 -30.3°
Reaches altitude 10° 23:30:00 10° 347° (NNW) 2,777 7.3 -30.4°
Enters shadow 23:36:10 72° 278° (W) 1,044 4.0 -30.5°
